Location: *
(46.0770°N, 1.6444°E)
Time: 23:28:48
(UTC+00:00)

Envisat - Pass Details

Date: 16 September 2019
Orbit: 764 x 766 km, 98.1° (Epoch: 14 October)

Event Time Altitude Azimuth Distance (km) Brightness Sun altitude
Rises 18:31:11 0° 183° (S) 3,219 6.2 -5.6°
Reaches altitude 10° 18:33:35 10° 190° (S) 2,298 5.5 -6.0°
Maximum altitude 18:38:24 44° 262° (W) 1,061 4.4 -6.8°
Drops below altitude 10° 18:43:16 10° 334° (NNW) 2,314 6.1 -7.6°
Sets 18:45:41 0° 341° (NNW) 3,244 6.7 -8.0°
